sat.trackr.live / text

‹ back to catalog

FLOCK 4BE-13

NORAD 60512 · 2024-149AW

PAYLOAD ACTIVE UNKNOWN

§ Identity

Operator
Country
US
Launch date
2024-08-16
Launch site
AFWTR
Launch vehicle
Mass (kg)
RCS (m²)

Purposes: earth_obs

External: N2YO · Heavens-Above · Gunter

§ Orbital elements

Epoch: 2026-05-25T04:15:07.140672Z

Period
93.43 min
Inclination
97.3717°
Eccentricity
0.0003617
Mean motion
15.41178676 rev/d
Perigee alt
440.2 km
Apogee alt
445.1 km
Semi-major
6,820.8 km
B*
3.3712e-4
RAAN
229.3611°
Arg perigee
14.3269°
Mean anomaly
345.8080°
Rev number
9,882

§ Raw data

FLOCK 4BE-131 60512U 24149AW  26145.17716598  .00013908  00000+0  33712-3 0  99952 60512  97.3717 229.3611 0003617  14.3269 345.8080 15.41178676 98827

JSON: /api/v1/satellites/60512 · /tle

For live sub-satellite position, see the globe view (requires WebGL).

§ Visibility from observer

Set your observer location to see the next 7 days of passes ≥ 10°. The values pass through the URL so the page stays shareable.

No JS? Fill the form by hand. The geolocation button needs JavaScript.